Stations météo

Publicité
Roma Fiumicino, Italie (16242): Température de l'air & dewpoint: 10.01.2018 20:00:00 - 16.01.2018 20:00:00 (CET)Roma Fiumicino, Italie (16242): Vitesse du vent: 10.01.2018 20:00:00 - 16.01.2018 20:00:00 (CET)Roma Fiumicino, Italie (16242): Direction du vent: 10.01.2018 20:00:00 - 16.01.2018 20:00:00 (CET)Roma Fiumicino, Italie (16242): reduced air pressure: 10.01.2018 20:00:00 - 16.01.2018 20:00:00 (CET)Roma Fiumicino, Italie (16242): visibility: 10.01.2018 20:00:00 - 16.01.2018 20:00:00 (CET)
Date & Time tt [°C] td [°C] ff [km/h] ff [knt] dd ppp [hPa] vv [km]
16.01.2018 20:00:00 13,0 11,0 9 5 WNW - 7
16.01.2018 19:00:00 14,0 10,9 9 5 W 1012,0 7
16.01.2018 18:00:00 14,0 11,0 16 9 W - 7
16.01.2018 17:00:00 14,0 11,0 28 15 WSW - 7
16.01.2018 16:00:00 14,5 10,8 39 21 WSW 1012,9 10
16.01.2018 15:00:00 14,0 10,0 41 22 WSW - 10
16.01.2018 14:00:00 15,0 10,0 42 23 WSW - 10
16.01.2018 13:00:00 14,2 9,8 35 19 WSW 1015,0 10
16.01.2018 12:00:00 14,0 9,0 41 22 WSW - 10
16.01.2018 11:00:00 14,0 9,0 35 19 WSW - 10
16.01.2018 10:00:00 13,5 9,0 31 17 WSW 1017,2 10
16.01.2018 09:00:00 13,0 8,0 34 18 WSW - 10
16.01.2018 08:00:00 13,0 9,0 28 15 W - 10
16.01.2018 07:00:00 12,6 7,3 28 15 WSW 1017,2 10
16.01.2018 06:00:00 12,0 9,0 35 19 WSW - 10
16.01.2018 05:00:00 12,0 8,0 29 16 SW - 10
16.01.2018 04:00:00 12,0 7,7 28 15 WSW 1018,6 10
16.01.2018 03:00:00 12,0 7,0 24 13 WSW - 10
16.01.2018 02:00:00 12,0 7,0 18 10 WSW - 10
16.01.2018 01:00:00 11,8 7,4 21 11 WSW 1020,8 10
16.01.2018 00:00:00 9,0 8,0 9 5 NE - 10
15.01.2018 23:00:00 9,0 8,0 8 4 S - 10
15.01.2018 22:00:00 9,3 7,8 13 7 SSE 1021,4 10
15.01.2018 21:00:00 9,0 8,0 9 5 ESE - 10
15.01.2018 20:00:00 10,0 9,0 8 4 ESE - 10
15.01.2018 19:00:00 9,5 8,1 9 5 SE 1021,7 10
15.01.2018 18:00:00 11,0 8,0 5 3 - - 10
15.01.2018 17:00:00 11,0 8,0 8 4 SE - 10
15.01.2018 16:00:00 12,0 8,1 11 6 S 1021,5 10
15.01.2018 15:00:00 13,0 9,0 11 6 SSE - 10
15.01.2018 14:00:00 13,0 8,0 15 8 S - 10
15.01.2018 13:00:00 13,2 7,3 8 4 SSE 1022,3 10
15.01.2018 12:00:00 13,0 6,0 8 4 E - 10
15.01.2018 11:00:00 11,0 6,0 11 6 ENE - 10
15.01.2018 10:00:00 10,4 6,1 15 8 ENE 1023,3 10
15.01.2018 09:00:00 7,0 5,0 11 6 NE - 10
15.01.2018 08:00:00 7,0 4,0 9 5 E - 10
15.01.2018 07:00:00 6,8 4,8 9 5 ENE 1022,3 10
15.01.2018 06:00:00 8,0 5,0 13 7 E - 10
15.01.2018 05:00:00 8,0 5,0 13 7 NE - 10
15.01.2018 04:00:00 7,2 5,0 5 3 N 1022,2 9
15.01.2018 03:00:00 7,0 5,0 4 2 - - 10
15.01.2018 02:00:00 7,0 5,0 8 4 NNE - 10
15.01.2018 01:00:00 7,4 5,6 5 3 N 1022,5 10
15.01.2018 00:00:00 8,0 6,0 15 8 E - 10
14.01.2018 23:00:00 8,0 5,0 9 5 E - 10
14.01.2018 22:00:00 7,1 5,3 8 4 ENE 1022,3 10
14.01.2018 21:00:00 7,0 5,0 8 4 ENE - 10
14.01.2018 20:00:00 6,0 4,0 8 4 ENE - 10
14.01.2018 19:00:00 6,4 4,7 5 3 NE 1021,2 10
14.01.2018 18:00:00 8,0 5,0 5 3 - - 10
14.01.2018 17:00:00 11,0 5,0 5 3 - - 10
14.01.2018 16:00:00 12,1 5,6 2 1 W 1020,2 30
14.01.2018 15:00:00 12,0 5,0 5 3 - - 10
14.01.2018 14:00:00 12,0 4,0 5 3 - - 10
14.01.2018 13:00:00 11,4 5,1 5 3 - 1020,1 10
14.01.2018 12:00:00 9,0 5,0 8 4 E - 10
14.01.2018 11:00:00 8,0 5,0 5 3 ENE - 10
14.01.2018 10:00:00 5,9 4,0 8 4 ENE 1020,6 10
14.01.2018 09:00:00 3,0 1,0 4 2 ENE - 10
14.01.2018 08:00:00 2,0 1,0 4 2 NE - 10
14.01.2018 07:00:00 2,9 1,2 8 4 E 1019,1 10
14.01.2018 06:00:00 3,0 2,0 5 3 E - 10
14.01.2018 05:00:00 3,0 2,0 5 3 NE - 10
14.01.2018 04:00:00 2,6 1,1 5 3 ENE 1018,6 10
14.01.2018 03:00:00 4,0 1,0 4 2 ENE - 10
14.01.2018 02:00:00 4,0 2,0 8 4 N - 10
14.01.2018 01:00:00 4,8 1,9 8 4 NNE 1018,8 10
14.01.2018 00:00:00 6,0 2,0 5 3 E - 10
13.01.2018 23:00:00 6,0 2,0 8 4 NNE - 10
13.01.2018 22:00:00 6,6 2,1 8 4 NNE 1018,7 10
13.01.2018 21:00:00 7,0 2,0 11 6 NE - 10
13.01.2018 20:00:00 8,0 3,0 8 4 NE - 10
13.01.2018 19:00:00 8,5 2,7 5 3 - 1018,5 10
13.01.2018 18:00:00 10,0 4,0 8 4 N - 10
13.01.2018 17:00:00 11,0 4,0 11 6 N - 10
13.01.2018 16:00:00 13,1 4,5 9 5 NNW 1017,2 10
13.01.2018 15:00:00 14,0 3,0 5 3 - - 10
13.01.2018 14:00:00 14,0 4,0 8 4 NE - 10
13.01.2018 13:00:00 13,5 3,3 13 7 NE 1017,1 10
13.01.2018 12:00:00 13,0 4,0 16 9 NE - 10
13.01.2018 11:00:00 11,0 4,0 18 10 NNE - 10
13.01.2018 10:00:00 10,1 3,2 13 7 NNE 1018,1 10
13.01.2018 09:00:00 8,0 3,0 16 9 NNE - 10
13.01.2018 08:00:00 7,0 2,0 18 10 NNE - 10
13.01.2018 07:00:00 6,8 2,1 9 5 NNE 1016,9 10
13.01.2018 06:00:00 6,0 2,0 11 6 NNE - 10
13.01.2018 05:00:00 7,0 2,0 9 5 NNE - 10
13.01.2018 04:00:00 6,3 1,7 9 5 NNE 1016,6 10
13.01.2018 03:00:00 7,0 2,0 9 5 NNE - 10
13.01.2018 02:00:00 7,0 2,0 13 7 NNE - 10
13.01.2018 01:00:00 7,8 2,5 16 9 NNE 1016,7 50
13.01.2018 00:00:00 8,0 3,0 13 7 NNE - 10
12.01.2018 23:00:00 8,0 3,0 11 6 NNE - 10
12.01.2018 22:00:00 8,4 2,8 16 9 NNE 1016,5 10
12.01.2018 21:00:00 9,0 3,0 15 8 N - 10
12.01.2018 20:00:00 10,0 3,0 21 11 NNE - 10
12.01.2018 19:00:00 10,0 3,6 22 12 NNE 1015,0 10
12.01.2018 18:00:00 11,0 4,0 16 9 N - 10
12.01.2018 17:00:00 11,0 5,0 13 7 NNW - 10
12.01.2018 16:00:00 13,0 5,0 11 6 N - 10
12.01.2018 15:00:00 - - - - - - -
12.01.2018 14:00:00 13,0 7,0 4 2 - - 10
12.01.2018 13:00:00 12,4 7,0 5 3 - 1012,7 10
12.01.2018 12:00:00 11,0 7,0 8 4 ENE - 10
12.01.2018 11:00:00 11,0 8,0 8 4 NE - 10
12.01.2018 10:00:00 9,5 7,7 9 5 NNE 1013,0 10
12.01.2018 09:00:00 9,0 8,0 8 4 NNE - 10
12.01.2018 08:00:00 8,0 7,0 9 5 N - 10
12.01.2018 07:00:00 8,2 7,3 5 3 N 1011,4 10
12.01.2018 06:00:00 8,0 7,0 8 4 NNE - 10
12.01.2018 05:00:00 9,0 7,0 15 8 NE - 10
12.01.2018 04:00:00 9,0 6,7 11 6 NNE 1010,4 10
12.01.2018 03:00:00 10,0 6,0 11 6 NE - 10
12.01.2018 02:00:00 9,0 6,0 5 3 N - 10
12.01.2018 01:00:00 9,5 6,2 9 5 NE 1009,7 10
12.01.2018 00:00:00 10,0 6,0 13 7 ENE - 10
11.01.2018 23:00:00 10,0 6,0 13 7 NE - 10
11.01.2018 22:00:00 10,4 6,1 16 9 NE 1009,3 10
11.01.2018 21:00:00 10,0 7,0 16 9 NE - 10
11.01.2018 20:00:00 10,0 7,0 15 8 ENE - 10
11.01.2018 19:00:00 9,8 7,2 13 7 NE 1008,9 10
11.01.2018 18:00:00 10,0 7,0 13 7 E - 10
11.01.2018 17:00:00 10,0 8,0 13 7 E - 10
11.01.2018 16:00:00 11,2 7,4 15 8 E 1008,4 10
11.01.2018 15:00:00 12,0 7,0 16 9 ESE - 10
11.01.2018 14:00:00 11,0 8,0 16 9 E - 10
11.01.2018 13:00:00 11,0 8,7 16 9 E 1008,9 15
11.01.2018 12:00:00 10,0 9,0 15 8 E - 10
11.01.2018 11:00:00 10,0 9,0 13 7 ENE - 10
11.01.2018 10:00:00 10,8 9,4 13 7 E 1011,0 10
11.01.2018 09:00:00 11,0 9,0 11 6 ESE - 10
11.01.2018 08:00:00 10,0 9,0 13 7 SE - 10
11.01.2018 07:00:00 10,8 8,6 11 6 SE 1011,3 10
11.01.2018 06:00:00 10,0 9,0 9 5 S - 8
11.01.2018 05:00:00 9,0 7,0 11 6 E - 10
11.01.2018 04:00:00 8,5 7,2 13 7 E 1011,9 10
11.01.2018 03:00:00 9,0 7,0 13 7 E - 10
11.01.2018 02:00:00 8,0 7,0 11 6 ESE - 10
11.01.2018 01:00:00 8,1 6,7 9 5 E 1013,4 10
11.01.2018 00:00:00 8,0 7,0 9 5 E - 10
10.01.2018 23:00:00 8,0 6,0 8 4 E - 10
10.01.2018 22:00:00 8,2 6,9 4 2 - - 10
10.01.2018 21:00:00 8,0 6,0 4 2 NE - 10
10.01.2018 20:00:00 9,0 7,0 5 3 - - 10

tt = Température de l'air
td = dewpoint
ff = Vitesse du vent
dd = Direction du vent
ppp = reduced air pressure
vv = visibility

stations d'obs. à proximité